Regional Weather Roundup
Issued by NWS Northern Indiana

Home | Current Version | Previous Version | Graphics & Text | Print | Product List | Glossary On
Versions: 1 2 3 4 5 6 7 8 9 10 11 12 13 14 15 16 17 18 19 20 21 22 23 24 25 26 27 28 29 30 31 32 33 34 35 36 37 38 39 40 41 42 43 44 45 46 47 48 49 50
000
ASUS43 KIWX 311210
RWRIWX

KIWX WEATHER ROUNDUP
NATIONAL WEATHER SERVICE NORTHERN INDIANA
800 AM EDT TUE MAY 31 2016

NOTE: "FAIR" INDICATES FEW OR NO CLOUDS BELOW 12,000 FEET WITH NO
SIGNIFICANT WEATHER AND/OR OBSTRUCTIONS TO VISIBILITY.

* THESE STATIONS ARE NOT UNDER NWS QUALITY CONTROL. THEY ALSO MAY NOT
  REPORT WEATHER SUCH AS PRECIPITATION OR FOG.

INZ001>027-311300-
NORTHERN INDIANA

CITY           SKY/WX    TMP DP  RH WIND       PRES   REMARKS
GARY*          PTSUNNY   68  64  88 E6        30.01R
VALPARAISO     MOSUNNY   66  58  75 E7        30.02R
6HR MIN TEMP:  61; 6HR MAX TEMP:  67;

MICHIGAN CITY* CLOUDY    64  57  77 E3        30.02S HAZE
LAPORTE*       CLOUDY    70  58  65 E8        30.03R
6HR MIN TEMP:  64; 6HR MAX TEMP:  70;

KNOX*          PTSUNNY   64  50  59 E6        30.01S
SOUTH BEND     PTSUNNY   65  56  72 E5        30.03S
6HR MIN TEMP:  58; 6HR MAX TEMP:  67;

ELKHART*       MOSUNNY   64  59  82 E5        30.04R
GOSHEN         PTSUNNY   66  56  70 E6        30.03R
6HR MIN TEMP:  56; 6HR MAX TEMP:  66;

MONTICELLO*    CLOUDY    66  52  59 E3        30.00R
6HR MIN TEMP:  64; 6HR MAX TEMP:  70;

LOGANSPORT*    CLOUDY    64  55  72 E5        30.03R
ROCHESTER*     PTSUNNY   68  59  73 E3        30.03R
WARSAW*        CLOUDY    64  59  82 E5        30.03R
ANGOLA*          N/A     68  61  77 CALM      30.04R
FORT WAYNE     CLOUDY    66  56  70 NE7       30.03R
6HR MIN TEMP:  59; 6HR MAX TEMP:  68;

HUNTINGTON*    CLOUDY   N/A N/A N/A NE3       30.02S
PERU/GRISSOM   MOSUNNY   66  59  78 E2        30.01R
6HR MIN TEMP:  61; 6HR MAX TEMP:  67;

MARION*        PTSUNNY   64  56  74 E3        30.03R
6HR MIN TEMP:  -1; 6HR MAX TEMP:  87;


$$
INZ028>050-311300-
CENTRAL INDIANA

CITY           SKY/WX    TMP DP  RH WIND       PRES   REMARKS
LAFAYETTE      PTSUNNY   63  60  90 CALM      30.00R
6HR MIN TEMP:  60; 6HR MAX TEMP:  68;

KOKOMO*        CLOUDY    66  55  68 CALM      30.02R
6HR MIN TEMP:  63; 6HR MAX TEMP:  70;

MUNCIE*        CLOUDY    69  58  67 CALM      30.02R
6HR MIN TEMP:  62; 6HR MAX TEMP:  69;

INDIANAPOLIS   CLOUDY    68  61  78 SW5       30.00R
6HR MIN TEMP:  65; 6HR MAX TEMP:  70;


$$
MIZ043>046-050>051-056>058-064>065-071>073-077>080-311300-
SOUTHWEST LOWER MICHIGAN

CITY           SKY/WX    TMP DP  RH WIND       PRES   REMARKS
BATTLE CREEK   CLOUDY    65  53  65 VRB3      30.05R
6HR MIN TEMP:  55; 6HR MAX TEMP:  65;

BENTON HARBOR  CLOUDY    67  56  67 E5        30.02R
6HR MIN TEMP:  57; 6HR MAX TEMP:  67;

COLDWATER*     SUNNY     64  55  73 E5        30.04R
6HR MIN TEMP:  55; 6HR MAX TEMP:  64;

HILLSDALE*     SUNNY     65  47  52 E3        30.05R
HOLLAND        SUNNY     63  58  83 CALM      30.05R
6HR MIN TEMP:  54; 6HR MAX TEMP:  63;

GRAND RAPIDS   MOSUNNY   62  54  74 CALM      30.05R
6HR MIN TEMP:  56; 6HR MAX TEMP:  62;

KALAMAZOO      SUNNY     65  56  72 CALM      30.05R
6HR MIN TEMP:  56; 6HR MAX TEMP:  65;

STURGIS*       SUNNY     65  52  61 E6        30.04R
6HR MIN TEMP:  60; 6HR MAX TEMP:  65;

THREE RIVERS*  FAIR      63  60  89 CALM      30.05R

$$
OHZ001>008-015>018-024>025-311300-
NORTHWEST OHIO

CITY           SKY/WX    TMP DP  RH WIND       PRES   REMARKS
WAUSEON*         N/A     68  68 100 NE7       30.03R
DEFIANCE       CLOUDY    67  54  63 NE6       30.03R
6HR MIN TEMP:  58; 6HR MAX TEMP:  67;

FINDLAY        CLOUDY    71  53  52 NE6       30.01R
6HR MIN TEMP:  62; 6HR MAX TEMP:  71;

TOLEDO EXPRESS MOSUNNY   65  53  65 N3        30.02R
6HR MIN TEMP:  57; 6HR MAX TEMP:  65;

TOLEDO METCALF CLOUDY    68  55  63 N6        30.02R
6HR MIN TEMP:  61; 6HR MAX TEMP:  69;

LIMA           CLOUDY    67  54  63 NE5       30.02R
6HR MIN TEMP:  63; 6HR MAX TEMP:  67;


$$
AND FOR LAKE MICHIGAN COASTAL AND OPEN LAKE BUOY OBSERVATIONS

STATION/POSITION TEMP    WIND        PRES    VSBY  WAVE
                 AIR SEA DIR/SP/G                  HT/PER
                 (F)     (DEG/KT/KT) (MB)    (MI)  (FT/S)
CALUMET HARBOR    64      50/  4/  5 1015.1R
MICHIGAN CITY     65      40/  3/  4   N/A
BURNS HARBOR      67     110/  6/  8 1016.3R
SAINT JOSEPH      67     190/  2/  4 1017.3R
SOUTH LAKE BUOY   59 55  180/  2/  2 1016.5R         0
4 MI NW BRIDGMAN  66 65  100/  8/ 10   N/A           1
MICHIGAN CITY     63 61   60/  6/  6   N/A           0

$$
&&




USA.gov is the U.S. government's official web portal to all federal, state and local government web resources and services.